,,Stat5,,Stat1,,Stat2,,Stat3,,Stat4,,Wind1,,Wind1,
time,status,PA1M_AVG,status,PR1M_SUM,status,RH1M_AVG,status,SR1M_AVG,status,TA1M_AVG,status,W1dAve1m,status,W1sAve1m,
2001-01-29, 00:00:01,VALID,917.373,VALID,0,VALID,99.1038,VALID,-0.0169808,VALID,18.833,VALID,221,VALID,0.948057,
2001-01-29, 00:01:00,VALID,917.385,VALID,0,VALID,99.086,VALID,0,VALID,18.8199,VALID,226,VALID,0.937078,
2001-01-29, 00:02:00,VALID,917.389,VALID,0,VALID,99.0949,VALID,0,VALID,18.8104,VALID,229,VALID,0.64984,
2001-01-29, 00:03:00,VALID,917.385,VALID,0,VALID,99.0758,VALID,0,VALID,18.7943,VALID,233,VALID,0.717483,
2001-01-29, 00:04:00,VALID,917.378,VALID,0,VALID,99.0567,VALID,-0.0169808,VALID,18.7746,VALID,229,VALID,0.634252,
2001-01-29, 00:05:00,VALID,917.361,VALID,0,VALID,99.0567,VALID,-0.0169808,VALID,18.7687,VALID,217,VALID,0.63186,
2001-01-29, 00:06:00,VALID,917.349,VALID,0,VALID,99.0338,VALID,-0.0169808,VALID,18.7421,VALID,229,VALID,0.764844,
2001-01-29, 00:07:00,VALID,917.346,VALID,0.2,VALID,99.0351,VALID,-0.0339617,VALID,18.7389,VALID,230,VALID,0.677885,
2001-01-29, 00:08:00,VALID,917.339,VALID,0,VALID,99.0211,VALID,-0.0169808,VALID,18.746,VALID,221,VALID,0.823808,
2001-01-29, 00:09:00,VALID,917.324,VALID,0,VALID,99.0275,VALID,0.0169808,VALID,18.756,VALID,221,VALID,0.492378,
2001-01-29, 00:10:00,VALID,917.323,VALID,0,VALID,99.0109,VALID,0,VALID,18.7352,VALID,207,VALID,0.558799,
2001-01-29, 00:11:00,VALID,917.32,VALID,0,VALID,99.0198,VALID,-0.0169808,VALID,18.7421,VALID,203,VALID,0.523438,
2001-01-29, 00:12:00,VALID,917.3,VALID,0,VALID,99.0071,VALID,-0.0169808,VALID,18.7329,VALID,168,VALID,0.462277,
2001-01-29, 00:13:00,VALID,917.3,VALID,0,VALID,98.9995,VALID,-0.0339617,VALID,18.7297,VALID,171,VALID,0.602407,
2001-01-29, 00:14:00,VALID,917.28,VALID,0,VALID,98.9792,VALID,-0.0169808,VALID,18.7294,VALID,186,VALID,0.533929,
2001-01-29, 00:15:00,VALID,917.265,VALID,0,VALID,98.9766,VALID,-0.0169808,VALID,18.7368,VALID,194,VALID,0.663035,
2001-01-29, 00:16:00,VALID,917.245,VALID,0,VALID,98.9817,VALID,-0.0509425,VALID,18.7232,VALID,193,VALID,0.516047,
2001-01-29, 00:17:00,VALID,917.234,VALID,0,VALID,98.9982,VALID,-0.0509425,VALID,18.7299,VALID,197,VALID,0.199424,
2001-01-29, 00:18:00,VALID,917.228,VALID,0,VALID,98.9982,VALID,-0.0169808,VALID,18.7391,VALID,196,VALID,0.407728,
2001-01-29, 00:19:00,VALID,917.214,VALID,0,VALID,99.016,VALID,0,VALID,18.7761,VALID,178,VALID,0.103125,
2001-01-29, 00:20:00,VALID,917.208,VALID,0,VALID,99.0402,VALID,-0.0509425,VALID,18.7721,VALID,184,VALID,0,
2001-01-29, 00:21:00,VALID,917.198,VALID,0,VALID,99.0415,VALID,-0.0339617,VALID,18.7846,VALID,184,VALID,0.0633681,
2001-01-29, 00:22:00,VALID,917.198,VALID,0,VALID,99.0237,VALID,-0.0339617,VALID,18.7647,VALID,184,VALID,0.281901,
2001-01-29, 00:23:00,VALID,917.174,VALID,0,VALID,99.0109,VALID,-0.0169808,VALID,18.7682,VALID,184,VALID,0.206209,
2001-01-29, 00:24:00,VALID,917.164,VALID,0,VALID,99.0148,VALID,0,VALID,18.7684,VALID,184,VALID,0.053125,
2001-01-29, 00:25:00,VALID,917.146,VALID,0,VALID,99.0491,VALID,0.0169808,VALID,18.7843,VALID,184,VALID,0,
2001-01-29, 00:26:00,VALID,917.134,VALID,0,VALID,99.0122,VALID,0,VALID,18.7843,VALID,184,VALID,0,
2001-01-29, 00:27:00,VALID,917.116,VALID,0,VALID,98.9944,VALID,0,VALID,18.7751,VALID,184,VALID,0.214433,
2001-01-29, 00:28:00,VALID,917.099,VALID,0,VALID,98.9766,VALID,0,VALID,18.7456,VALID,183,VALID,0.640419,
2001-01-29, 00:29:00,VALID,917.082,VALID,0,VALID,98.9614,VALID,-0.0169808,VALID,18.7292,VALID,182,VALID,0.591406,
2001-01-29, 00:30:00,VALID,917.064,VALID,0,VALID,98.9741,VALID,0,VALID,18.7458,VALID,172,VALID,0.628495,
2001-01-29, 00:31:00,VALID,917.036,VALID,0,VALID,98.9931,VALID,-0.0169808,VALID,18.7458,VALID,166,VALID,0.616365,
2001-01-29, 00:32:00,VALID,917.006,VALID,0,VALID,98.9893,VALID,-0.0339617,VALID,18.7456,VALID,184,VALID,0.714105,
2001-01-29, 00:33:00,VALID,916.98,VALID,0,VALID,98.9779,VALID,-0.0169808,VALID,18.7331,VALID,201,VALID,0.766493,
2001-01-29, 00:34:00,VALID,916.962,VALID,0,VALID,98.9588,VALID,0,VALID,18.7264,VALID,209,VALID,1.05156,
2001-01-29, 00:35:00,VALID,916.924,VALID,0,VALID,98.9779,VALID,-0.0339617,VALID,18.7262,VALID,209,VALID,0.738653,
2001-01-29, 00:36:00,VALID,916.915,VALID,0,VALID,99.0008,VALID,0,VALID,18.7361,VALID,180,VALID,0.640836,
2001-01-29, 00:37:00,VALID,916.895,VALID,0,VALID,98.9766,VALID,0.0849042,VALID,18.7349,VALID,173,VALID,0.77027,
2001-01-29, 00:38:00,VALID,916.888,VALID,0,VALID,98.9601,VALID,0.0509425,VALID,18.729,VALID,190,VALID,0.923931,
2001-01-29, 00:39:00,VALID,916.884,VALID,0,VALID,98.9397,VALID,0.0679233,VALID,18.7292,VALID,190,VALID,0.959604,
2001-01-29, 00:40:00,VALID,916.862,VALID,0,VALID,98.941,VALID,0.0509425,VALID,18.7158,VALID,196,VALID,0.985814,
2001-01-29, 00:41:00,VALID,916.829,VALID,0,VALID,98.9283,VALID,0.0679233,VALID,18.7319,VALID,199,VALID,0.986431,
2001-01-29, 00:42:00,VALID,916.813,VALID,0,VALID,98.9346,VALID,0.0679233,VALID,18.7322,VALID,210,VALID,0.599175,
2001-01-29, 00:43:00,VALID,916.799,VALID,0,VALID,98.9334,VALID,0.101885,VALID,18.7285,VALID,216,VALID,0.693201,
2001-01-29, 00:44:00,VALID,916.794,VALID,0,VALID,98.9512,VALID,0.101885,VALID,18.725,VALID,215,VALID,0.81808,
2001-01-29, 00:45:00,VALID,916.774,VALID,0,VALID,98.9486,VALID,0.101885,VALID,18.7287,VALID,219,VALID,0.997738,
2001-01-29, 00:46:00,VALID,916.744,VALID,0,VALID,98.9512,VALID,0.0509425,VALID,18.725,VALID,207,VALID,0.698269,
2001-01-29, 00:47:00,VALID,916.733,VALID,0,VALID,98.9512,VALID,0.0849042,VALID,18.7218,VALID,194,VALID,0.569696,
2001-01-29, 00:48:00,VALID,916.711,VALID,0,VALID,98.9626,VALID,0.0679233,VALID,18.722,VALID,192,VALID,0.656672,
2001-01-29, 00:49:00,VALID,916.696,VALID,0,VALID,98.9512,VALID,0.0679233,VALID,18.719,VALID,192,VALID,0.548047,
2001-01-29, 00:50:00,VALID,916.691,VALID,0,VALID,98.9385,VALID,0.0679233,VALID,18.7029,VALID,187,VALID,0.924137,
2001-01-29, 00:51:00,VALID,916.672,VALID,0,VALID,98.9486,VALID,0.0339617,VALID,18.7066,VALID,184,VALID,0.318576,
2001-01-29, 00:52:00,VALID,916.664,VALID,0,VALID,98.9474,VALID,-0.0679233,VALID,18.7045,VALID,176,VALID,0.536241,
2001-01-29, 00:53:00,VALID,916.639,VALID,0,VALID,98.9575,VALID,-0.0169808,VALID,18.6946,VALID,169,VALID,0.63199,
2001-01-29, 00:54:00,VALID,916.646,VALID,0,VALID,98.9728,VALID,-0.0339617,VALID,18.7048,VALID,163,VALID,0.504687,
2001-01-29, 00:55:00,VALID,916.648,VALID,0,VALID,98.9944,VALID,-0.0509425,VALID,18.6946,VALID,173,VALID,0.462305,
2001-01-29, 00:56:00,VALID,916.651,VALID,0,VALID,98.9995,VALID,-0.0509425,VALID,18.6946,VALID,180,VALID,0.0741186,
2001-01-29, 00:57:00,VALID,916.635,VALID,0,VALID,99.0211,VALID,-0.0339617,VALID,18.6981,VALID,176,VALID,0.251028,
2001-01-29, 00:58:00,VALID,916.633,VALID,0.2,VALID,99.0326,VALID,-0.0169808,VALID,18.6981,VALID,174,VALID,0.426192,
2001-01-29, 00:59:00,VALID,916.616,VALID,0,VALID,99.0516,VALID,-0.0169808,VALID,18.6946,VALID,168,VALID,0.481445,
2001-01-29, 01:00:00,VALID,916.616,VALID,0,VALID,99.0567,VALID,0,VALID,18.6782,VALID,183,VALID,0.611431,
2001-01-29, 01:01:00,VALID,916.607,VALID,0,VALID,99.0644,VALID,-0.0339617,VALID,18.6849,VALID,214,VALID,0.417146,
2001-01-29, 01:02:00,VALID,916.595,VALID,0,VALID,99.0771,VALID,-0.0509425,VALID,18.6752,VALID,223,VALID,0.103885,
2001-01-29, 01:03:00,VALID,916.573,VALID,0,VALID,99.0822,VALID,-0.0339617,VALID,18.6822,VALID,232,VALID,0,
2001-01-29, 01:04:00,VALID,916.547,VALID,0,VALID,99.0872,VALID,-0.0339617,VALID,18.6819,VALID,224,VALID,0,
2001-01-29, 01:05:00,VALID,916.524,VALID,0,VALID,99.105,VALID,-0.0679233,VALID,18.6819,VALID,201,VALID,0,
2001-01-29, 01:06:00,VALID,916.496,VALID,0,VALID,99.1165,VALID,-0.0339617,VALID,18.6787,VALID,184,VALID,0,
2001-01-29, 01:07:00,VALID,916.469,VALID,0,VALID,99.1457,VALID,-0.0509425,VALID,18.6884,VALID,182,VALID,0,
2001-01-29, 01:08:00,VALID,916.435,VALID,0,VALID,99.1305,VALID,-0.0169808,VALID,18.6814,VALID,182,VALID,0,
2001-01-29, 01:09:00,VALID,916.422,VALID,0,VALID,99.1356,VALID,-0.0339617,VALID,18.6849,VALID,181,VALID,0,
2001-01-29, 01:10:00,VALID,916.397,VALID,0,VALID,99.1406,VALID,-0.0339617,VALID,18.6854,VALID,181,VALID,0,
2001-01-29, 01:11:00,VALID,916.392,VALID,0,VALID,99.1432,VALID,-0.0509425,VALID,18.6822,VALID,181,VALID,0,
2001-01-29, 01:12:00,VALID,916.382,VALID,0,VALID,99.1585,VALID,-0.0169808,VALID,18.6785,VALID,181,VALID,0,
2001-01-29, 01:13:00,VALID,916.382,VALID,0,VALID,99.1775,VALID,-0.0339617,VALID,18.6852,VALID,180,VALID,0,
2001-01-29, 01:14:00,VALID,916.371,VALID,0,VALID,99.1839,VALID,-0.0339617,VALID,18.6983,VALID,180,VALID,0,
2001-01-29, 01:15:00,VALID,916.353,VALID,0,VALID,99.1852,VALID,-0.0169808,VALID,18.6985,VALID,180,VALID,0,
2001-01-29, 01:16:00,VALID,916.349,VALID,0,VALID,99.1915,VALID,-0.0509425,VALID,18.6916,VALID,180,VALID,0,
2001-01-29, 01:17:00,VALID,916.335,VALID,0,VALID,99.1928,VALID,-0.0509425,VALID,18.6914,VALID,180,VALID,0,
2001-01-29, 01:18:00,VALID,916.324,VALID,0,VALID,99.1877,VALID,-0.0679233,VALID,18.6849,VALID,154,VALID,0,
2001-01-29, 01:19:00,VALID,916.322,VALID,0,VALID,99.1839,VALID,-0.0679233,VALID,18.6983,VALID,112,VALID,0,
2001-01-29, 01:20:00,VALID,916.312,VALID,0,VALID,99.1864,VALID,-0.0169808,VALID,18.6819,VALID,114,VALID,0,
2001-01-29, 01:21:00,VALID,916.317,VALID,0,VALID,99.1763,VALID,-0.0509425,VALID,18.6561,VALID,120,VALID,0,
2001-01-29, 01:22:00,VALID,916.306,VALID,0,VALID,99.1788,VALID,-0.0509425,VALID,18.6529,VALID,116,VALID,0.566406,
2001-01-29, 01:23:00,VALID,916.294,VALID,0,VALID,99.1915,VALID,-0.0679233,VALID,18.6628,VALID,124,VALID,0.502262,
2001-01-29, 01:24:00,VALID,916.275,VALID,0,VALID,99.2004,VALID,-0.0679233,VALID,18.6593,VALID,143,VALID,0.491071,
2001-01-29, 01:25:00,VALID,916.272,VALID,0,VALID,99.1928,VALID,-0.0509425,VALID,18.6561,VALID,152,VALID,0.436523,
2001-01-29, 01:26:00,VALID,916.234,VALID,0,VALID,99.1877,VALID,-0.0339617,VALID,18.6462,VALID,156,VALID,0.369191,
2001-01-29, 01:27:00,VALID,916.234,VALID,0,VALID,99.1902,VALID,-0.0509425,VALID,18.6436,VALID,155,VALID,0.181949,
2001-01-29, 01:28:00,VALID,916.224,VALID,0,VALID,99.2042,VALID,-0.101885,VALID,18.6436,VALID,156,VALID,0.115954,
2001-01-29, 01:29:00,VALID,916.212,VALID,0,VALID,99.2106,VALID,-0.0679233,VALID,18.6436,VALID,145,VALID,0.31582,
2001-01-29, 01:30:00,VALID,916.219,VALID,0,VALID,99.2335,VALID,-0.0509425,VALID,18.6759,VALID,99,VALID,0.566201,
2001-01-29, 01:31:00,VALID,916.227,VALID,0,VALID,99.236,VALID,-0.101885,VALID,18.6759,VALID,104,VALID,0.479441,
2001-01-29, 01:32:00,VALID,916.224,VALID,0,VALID,99.2297,VALID,-0.0679233,VALID,18.666,VALID,111,VALID,0.274916,
2001-01-29, 01:33:00,VALID,916.221,VALID,0,VALID,99.2246,VALID,-0.0509425,VALID,18.6824,VALID,126,VALID,0,
2001-01-29, 01:34:00,VALID,916.202,VALID,0,VALID,99.2119,VALID,-0.0339617,VALID,18.6598,VALID,155,VALID,0.0915179,
2001-01-29, 01:35:00,VALID,916.185,VALID,0,VALID,99.1966,VALID,-0.0509425,VALID,18.6566,VALID,158,VALID,0,
2001-01-29, 01:36:00,VALID,916.196,VALID,0,VALID,99.2119,VALID,-0.0849042,VALID,18.6432,VALID,158,VALID,0,
2001-01-29, 01:37:00,VALID,916.22,VALID,0,VALID,99.2093,VALID,-0.0339617,VALID,18.6566,VALID,158,VALID,0,
2001-01-29, 01:38:00,VALID,916.244,VALID,0,VALID,99.2119,VALID,-0.0679233,VALID,18.663,VALID,158,VALID,0,
2001-01-29, 01:39:00,VALID,916.248,VALID,0,VALID,99.2195,VALID,-0.0169808,VALID,18.6595,VALID,152,VALID,0.0788872,
2001-01-29, 01:40:00,VALID,916.239,VALID,0,VALID,99.2106,VALID,-0.0339617,VALID,18.6595,VALID,109,VALID,0.296669,
2001-01-29, 01:41:00,VALID,916.219,VALID,0,VALID,99.2042,VALID,-0.0169808,VALID,18.6367,VALID,57,VALID,0.320724,
2001-01-29, 01:42:00,VALID,916.196,VALID,0,VALID,99.2182,VALID,-0.0169808,VALID,18.6464,VALID,51,VALID,0,
2001-01-29, 01:43:00,VALID,916.167,VALID,0,VALID,99.2182,VALID,-0.0509425,VALID,18.6305,VALID,49,VALID,0,
2001-01-29, 01:44:00,VALID,916.155,VALID,0,VALID,99.2246,VALID,-0.0169808,VALID,18.6369,VALID,40,VALID,0,
2001-01-29, 01:45:00,VALID,916.146,VALID,0,VALID,99.2335,VALID,-0.0169808,VALID,18.6402,VALID,34,VALID,0,
2001-01-29, 01:46:00,VALID,916.157,VALID,0,VALID,99.2386,VALID,0,VALID,18.6432,VALID,34,VALID,0,
2001-01-29, 01:47:00,VALID,916.181,VALID,0,VALID,99.2437,VALID,-0.0169808,VALID,18.6529,VALID,34,VALID,0,
2001-01-29, 01:48:00,VALID,916.182,VALID,0,VALID,99.2653,VALID,0,VALID,18.6628,VALID,34,VALID,0,
2001-01-29, 01:49:00,VALID,916.2,VALID,0,VALID,99.2615,VALID,-0.0169808,VALID,18.6623,VALID,34,VALID,0,
2001-01-29, 01:50:00,VALID,916.193,VALID,0,VALID,99.2589,VALID,-0.0679233,VALID,18.663,VALID,34,VALID,0,
2001-01-29, 01:51:00,VALID,916.186,VALID,0,VALID,99.2678,VALID,-0.0169808,VALID,18.6658,VALID,34,VALID,0,
2001-01-29, 01:52:00,VALID,916.169,VALID,0,VALID,99.2576,VALID,-0.0169808,VALID,18.6558,VALID,34,VALID,0,
2001-01-29, 01:53:00,VALID,916.17,VALID,0,VALID,99.2602,VALID,-0.0509425,VALID,18.6531,VALID,307,VALID,0.011102,
2001-01-29, 01:54:00,VALID,916.157,VALID,0,VALID,99.2576,VALID,0,VALID,18.6533,VALID,270,VALID,0.287277,
2001-01-29, 01:55:00,VALID,916.161,VALID,0,VALID,99.2704,VALID,-0.0339617,VALID,18.6332,VALID,250,VALID,0.496875,
2001-01-29, 01:56:00,VALID,916.142,VALID,0,VALID,99.2742,VALID,-0.0169808,VALID,18.6268,VALID,250,VALID,0.147236,
2001-01-29, 01:57:00,VALID,916.133,VALID,0,VALID,99.2691,VALID,-0.0169808,VALID,18.6265,VALID,250,VALID,0,
2001-01-29, 01:58:00,VALID,916.131,VALID,0,VALID,99.2869,VALID,0,VALID,18.627,VALID,250,VALID,0,
2001-01-29, 01:59:00,VALID,916.12,VALID,0,VALID,99.2805,VALID,-0.0169808,VALID,18.6399,VALID,250,VALID,0,
2001-01-29, 02:00:00,VALID,916.101,VALID,0,VALID,99.2754,VALID,-0.0339617,VALID,18.6109,VALID,250,VALID,0,
2001-01-29, 02:01:00,VALID,916.081,VALID,0,VALID,99.2691,VALID,-0.0169808,VALID,18.6044,VALID,250,VALID,0,
2001-01-29, 02:02:00,VALID,916.074,VALID,0,VALID,99.2793,VALID,0,VALID,18.6049,VALID,247,VALID,0.0874155,
2001-01-29, 02:03:00,VALID,916.073,VALID,0,VALID,99.306,VALID,-0.0339617,VALID,18.6019,VALID,245,VALID,0.000868056,
2001-01-29, 02:04:00,VALID,916.07,VALID,0,VALID,99.3136,VALID,-0.0169808,VALID,18.6051,VALID,245,VALID,0,
2001-01-29, 02:05:00,VALID,916.078,VALID,0,VALID,99.3098,VALID,-0.0169808,VALID,18.5949,VALID,244,VALID,0,
2001-01-29, 02:06:00,VALID,916.082,VALID,0,VALID,99.3225,VALID,-0.0169808,VALID,18.6012,VALID,243,VALID,0,
2001-01-29, 02:07:00,VALID,916.082,VALID,0,VALID,99.3301,VALID,0,VALID,18.6074,VALID,233,VALID,0,
2001-01-29, 02:08:00,VALID,916.06,VALID,0,VALID,99.3403,VALID,0,VALID,18.6243,VALID,226,VALID,0.354235,
2001-01-29, 02:09:00,VALID,916.064,VALID,0,VALID,99.3365,VALID,-0.0169808,VALID,18.6173,VALID,229,VALID,0.520389,
2001-01-29, 02:10:00,VALID,916.062,VALID,0,VALID,99.3441,VALID,0,VALID,18.6206,VALID,235,VALID,0.528372,
2001-01-29, 02:11:00,VALID,916.062,VALID,0,VALID,99.3441,VALID,-0.0169808,VALID,18.6109,VALID,229,VALID,0.653166,
2001-01-29, 02:12:00,VALID,916.064,VALID,0,VALID,99.3428,VALID,-0.0339617,VALID,18.6206,VALID,233,VALID,0.655599,
2001-01-29, 02:13:00,VALID,916.062,VALID,0,VALID,99.3365,VALID,-0.0169808,VALID,18.6009,VALID,234,VALID,0.701647,
2001-01-29, 02:14:00,VALID,916.054,VALID,0,VALID,99.3403,VALID,0,VALID,18.6044,VALID,234,VALID,0.383705,
2001-01-29, 02:15:00,VALID,916.061,VALID,0,VALID,99.3556,VALID,-0.0169808,VALID,18.6111,VALID,230,VALID,0.0154194,
2001-01-29, 02:16:00,VALID,916.073,VALID,0,VALID,99.3556,VALID,-0.0339617,VALID,18.6079,VALID,230,VALID,0,
2001-01-29, 02:17:00,VALID,916.089,VALID,0,VALID,99.353,VALID,-0.0169808,VALID,18.6076,VALID,230,VALID,0,
2001-01-29, 02:18:00,VALID,916.091,VALID,0,VALID,99.3556,VALID,0,VALID,18.6141,VALID,230,VALID,0,
2001-01-29, 02:19:00,VALID,916.082,VALID,0,VALID,99.3492,VALID,-0.0169808,VALID,18.6106,VALID,221,VALID,0.373242,
2001-01-29, 02:20:00,VALID,916.079,VALID,0,VALID,99.3606,VALID,-0.0169808,VALID,18.6206,VALID,218,VALID,0.390008,
2001-01-29, 02:21:00,VALID,916.094,VALID,0,VALID,99.3568,VALID,-0.0169808,VALID,18.6104,VALID,178,VALID,0.445313,
2001-01-29, 02:22:00,VALID,916.108,VALID,0,VALID,99.3543,VALID,-0.0169808,VALID,18.6141,VALID,154,VALID,0.592665,
2001-01-29, 02:23:00,VALID,916.117,VALID,0,VALID,99.3581,VALID,0.0169808,VALID,18.6143,VALID,146,VALID,0.642887,
2001-01-29, 02:24:00,VALID,916.122,VALID,0,VALID,99.3632,VALID,0,VALID,18.6178,VALID,146,VALID,0.540402,
2001-01-29, 02:25:00,VALID,916.116,VALID,0,VALID,99.3403,VALID,0,VALID,18.6044,VALID,172,VALID,0.673633,
2001-01-29, 02:26:00,VALID,916.11,VALID,0,VALID,99.3377,VALID,-0.0339617,VALID,18.5979,VALID,176,VALID,0.608974,
2001-01-29, 02:27:00,VALID,916.094,VALID,0,VALID,99.3225,VALID,-0.0339617,VALID,18.5982,VALID,174,VALID,0.620271,
2001-01-29, 02:28:00,VALID,916.089,VALID,0,VALID,99.3072,VALID,0,VALID,18.5952,VALID,172,VALID,0.565378,
2001-01-29, 02:29:00,VALID,916.071,VALID,0,VALID,99.3021,VALID,-0.0169808,VALID,18.5853,VALID,172,VALID,0.593359,
2001-01-29, 02:30:00,VALID,916.071,VALID,0,VALID,99.3034,VALID,-0.0169808,VALID,18.5751,VALID,193,VALID,0.61472,
2001-01-29, 02:31:01,VALID,916.07,VALID,0,VALID,99.3161,VALID,-0.0509425,VALID,18.5816,VALID,179,VALID,0.556332,
2001-01-29, 02:32:00,VALID,916.073,VALID,0,VALID,99.2907,VALID,-0.0169808,VALID,18.6014,VALID,164,VALID,0.455448,
2001-01-29, 02:33:00,VALID,916.086,VALID,0,VALID,99.2983,VALID,-0.0169808,VALID,18.6014,VALID,167,VALID,0.0529514,
2001-01-29, 02:34:01,VALID,916.092,VALID,0,VALID,99.2983,VALID,-0.0169808,VALID,18.6111,VALID,183,VALID,0,
2001-01-29, 02:35:01,VALID,916.083,VALID,0,VALID,99.2843,VALID,-0.0509425,VALID,18.6079,VALID,189,VALID,0,
2001-01-29, 02:36:00,VALID,916.085,VALID,0,VALID,99.264,VALID,0,VALID,18.6208,VALID,190,VALID,0,
2001-01-29, 02:37:00,VALID,916.087,VALID,0,VALID,99.2602,VALID,0,VALID,18.6141,VALID,190,VALID,0.161951,
2001-01-29, 02:38:00,VALID,916.083,VALID,0,VALID,99.25,VALID,-0.0339617,VALID,18.6208,VALID,180,VALID,0.491776,
2001-01-29, 02:39:00,VALID,916.08,VALID,0,VALID,99.2246,VALID,0,VALID,18.6139,VALID,175,VALID,0.632813,
2001-01-29, 02:40:00,VALID,916.075,VALID,0,VALID,99.1991,VALID,0,VALID,18.6039,VALID,179,VALID,0.758635,
2001-01-29, 02:41:00,VALID,916.066,VALID,0,VALID,99.1801,VALID,0,VALID,18.6111,VALID,207,VALID,0.732319,
2001-01-29, 02:42:00,VALID,916.064,VALID,0,VALID,99.1699,VALID,-0.0169808,VALID,18.6044,VALID,205,VALID,0.922092,
2001-01-29, 02:43:00,VALID,916.048,VALID,0,VALID,99.1572,VALID,0,VALID,18.5975,VALID,204,VALID,0.777449,
2001-01-29, 02:44:00,VALID,916.032,VALID,0,VALID,99.1457,VALID,0,VALID,18.6076,VALID,198,VALID,0.731473,
2001-01-29, 02:45:00,VALID,916.013,VALID,0,VALID,99.1343,VALID,0,VALID,18.5977,VALID,201,VALID,0.641447,
2001-01-29, 02:46:00,VALID,915.988,VALID,0,VALID,99.1228,VALID,-0.0169808,VALID,18.5945,VALID,191,VALID,0.798142,
2001-01-29, 02:47:00,VALID,915.973,VALID,0,VALID,99.105,VALID,0,VALID,18.5947,VALID,185,VALID,0.818462,
2001-01-29, 02:48:00,VALID,915.956,VALID,0,VALID,99.0949,VALID,-0.0169808,VALID,18.6046,VALID,179,VALID,0.679265,
2001-01-29, 02:49:00,VALID,915.932,VALID,0,VALID,99.0783,VALID,-0.0169808,VALID,18.6046,VALID,166,VALID,0.680078,
2001-01-29, 02:50:00,VALID,915.912,VALID,0,VALID,99.0427,VALID,0,VALID,18.6044,VALID,153,VALID,0.607319,
2001-01-29, 02:51:00,VALID,915.892,VALID,0,VALID,99.0046,VALID,0,VALID,18.5977,VALID,140,VALID,0.633464,
2001-01-29, 02:52:01,VALID,915.878,VALID,0,VALID,98.9804,VALID,0,VALID,18.5982,VALID,140,VALID,0.554688,
2001-01-29, 02:53:00,VALID,915.866,VALID,0,VALID,98.9626,VALID,-0.0169808,VALID,18.5878,VALID,133,VALID,0.835321,
2001-01-29, 02:54:00,VALID,915.84,VALID,0,VALID,98.9359,VALID,-0.0169808,VALID,18.5915,VALID,141,VALID,0.814509,
2001-01-29, 02:55:00,VALID,915.833,VALID,0,VALID,98.9041,VALID,0,VALID,18.5979,VALID,133,VALID,0.578125,
2001-01-29, 02:56:00,VALID,915.825,VALID,0,VALID,98.8634,VALID,-0.0339617,VALID,18.5952,VALID,134,VALID,0.442909,
2001-01-29, 02:57:01,VALID,915.815,VALID,0,VALID,98.8494,VALID,-0.0509425,VALID,18.5885,VALID,132,VALID,0.361637,
2001-01-29, 02:58:00,VALID,915.806,VALID,0,VALID,98.8151,VALID,-0.0339617,VALID,18.5887,VALID,144,VALID,0.35074,
2001-01-29, 02:59:00,VALID,915.804,VALID,0,VALID,98.791,VALID,0,VALID,18.5758,VALID,151,VALID,0.0623047,
2001-01-29, 03:00:01,VALID,915.797,VALID,0,VALID,98.763,VALID,-0.0169808,VALID,18.5493,VALID,160,VALID,0.236637,
2001-01-29, 03:01:01,VALID,915.803,VALID,0,VALID,98.7681,VALID,-0.0339617,VALID,18.5467,VALID,165,VALID,0.647821,
2001-01-29, 03:02:01,VALID,915.797,VALID,0,VALID,98.796,VALID,0,VALID,18.5396,VALID,158,VALID,0.603252,
2001-01-29, 03:03:00,VALID,915.791,VALID,0,VALID,98.7732,VALID,0,VALID,18.5368,VALID,158,VALID,0.54145,
2001-01-29, 03:04:01,VALID,915.795,VALID,0,VALID,98.7337,VALID,-0.0339617,VALID,18.5172,VALID,163,VALID,0.479464,
2001-01-29, 03:05:01,VALID,915.789,VALID,0,VALID,98.7325,VALID,-0.0339617,VALID,18.5048,VALID,165,VALID,0.489025,
2001-01-29, 03:06:00,VALID,915.78,VALID,0,VALID,98.7325,VALID,0,VALID,18.4784,VALID,165,VALID,0.341427,
2001-01-29, 03:07:01,VALID,915.763,VALID,0,VALID,98.749,VALID,0,VALID,18.4591,VALID,165,VALID,0.15435,
2001-01-29, 03:08:00,VALID,915.744,VALID,0,VALID,98.7935,VALID,-0.0169808,VALID,18.4561,VALID,159,VALID,0.0884046,
2001-01-29, 03:09:00,VALID,915.739,VALID,0,VALID,98.8126,VALID,-0.0339617,VALID,18.4498,VALID,116,VALID,0.619855,
2001-01-29, 03:10:00,VALID,915.726,VALID,0,VALID,98.7897,VALID,-0.0339617,VALID,18.4205,VALID,110,VALID,0.614926,
2001-01-29, 03:11:00,VALID,915.718,VALID,0,VALID,98.8075,VALID,-0.0169808,VALID,18.4042,VALID,128,VALID,0.356497,
2001-01-29, 03:12:00,VALID,915.698,VALID,0,VALID,98.8507,VALID,0,VALID,18.3912,VALID,153,VALID,0.533203,
2001-01-29, 03:13:00,VALID,915.697,VALID,0,VALID,98.8889,VALID,0,VALID,18.3947,VALID,160,VALID,0.162373,
2001-01-29, 03:14:00,VALID,915.673,VALID,0,VALID,98.8952,VALID,-0.0169808,VALID,18.3912,VALID,161,VALID,0,
2001-01-29, 03:15:01,VALID,915.653,VALID,0,VALID,98.9232,VALID,-0.0169808,VALID,18.3848,VALID,161,VALID,0,
2001-01-29, 03:16:00,VALID,915.64,VALID,0,VALID,98.9296,VALID,-0.0339617,VALID,18.3949,VALID,161,VALID,0,
2001-01-29, 03:17:01,VALID,915.632,VALID,0,VALID,98.9245,VALID,-0.0339617,VALID,18.3917,VALID,161,VALID,0,
2001-01-29, 03:18:01,VALID,915.607,VALID,0,VALID,98.9156,VALID,-0.0509425,VALID,18.3853,VALID,161,VALID,0,
2001-01-29, 03:19:00,VALID,915.601,VALID,0,VALID,98.9258,VALID,-0.0509425,VALID,18.376,VALID,161,VALID,0,
2001-01-29, 03:20:00,VALID,915.591,VALID,0,VALID,98.9537,VALID,-0.0169808,VALID,18.3853,VALID,161,VALID,0,
2001-01-29, 03:21:00,VALID,915.576,VALID,0,VALID,98.969,VALID,-0.0509425,VALID,18.3917,VALID,161,VALID,0,
2001-01-29, 03:22:01,VALID,915.573,VALID,0,VALID,99.0046,VALID,-0.0849042,VALID,18.4079,VALID,161,VALID,0,
2001-01-29, 03:23:00,VALID,915.577,VALID,0,VALID,99.0338,VALID,-0.0169808,VALID,18.4173,VALID,161,VALID,0,
2001-01-29, 03:24:00,VALID,915.573,VALID,0,VALID,99.0453,VALID,-0.0509425,VALID,18.4272,VALID,161,VALID,0,
2001-01-29, 03:25:00,VALID,915.567,VALID,0,VALID,99.0516,VALID,-0.0339617,VALID,18.4404,VALID,161,VALID,0,
2001-01-29, 03:26:01,VALID,915.563,VALID,0,VALID,99.0516,VALID,-0.0339617,VALID,18.4238,VALID,161,VALID,0,
2001-01-29, 03:27:00,VALID,915.555,VALID,0,VALID,99.0567,VALID,-0.0169808,VALID,18.4173,VALID,161,VALID,0,
2001-01-29, 03:28:00,VALID,915.549,VALID,0,VALID,99.0516,VALID,-0.0509425,VALID,18.4242,VALID,161,VALID,0,
2001-01-29, 03:29:00,VALID,915.566,VALID,0,VALID,99.0364,VALID,-0.0679233,VALID,18.4019,VALID,161,VALID,0,
2001-01-29, 03:30:01,VALID,915.567,VALID,0,VALID,99.0377,VALID,-0.0169808,VALID,18.3919,VALID,161,VALID,0,
2001-01-29, 03:31:01,VALID,915.562,VALID,0,VALID,99.0262,VALID,-0.0339617,VALID,18.3659,VALID,161,VALID,0,
2001-01-29, 03:32:01,VALID,915.558,VALID,0,VALID,99.0313,VALID,-0.0679233,VALID,18.3403,VALID,161,VALID,0,
2001-01-29, 03:33:00,VALID,915.559,VALID,0,VALID,99.0605,VALID,-0.0339617,VALID,18.3537,VALID,161,VALID,0,
2001-01-29, 03:34:01,VALID,915.551,VALID,0,VALID,99.1165,VALID,-0.0339617,VALID,18.343,VALID,161,VALID,0,
2001-01-29, 03:35:01,VALID,915.532,VALID,0,VALID,99.1318,VALID,-0.0339617,VALID,18.3594,VALID,161,VALID,0,